Regional Weather Roundup
Issued by NWS

Home | Current Version | Previous Version | Text Only | Print | Product List | Glossary On
Versions: 1 2 3 4 5 6 7 8 9 10 11 12 13 14 15 16 17 18 19 20 21 22 23 24 25 26 27 28 29 30 31 32 33 34 35 36 37 38 39 40 41 42 43 44 45 46 47 48 49 50
000
ASUS43 KDTX 011001
RWRMI
MICHIGAN HOURLY REGIONAL WEATHER ROUNDUP
NATIONAL WEATHER SERVICE DETROIT/PONTIAC MI
600 AM EDT TUE SEP 01 2015

NOTE: "FAIR" INDICATES FEW OR NO CLOUDS BELOW 12,000 FEET WITH NO
SIGNIFICANT WEATHER AND/OR OBSTRUCTION TO VISIBILITY.

MIZ047>049-052>055-059>063-066>070-074>076-081>083-011100-
SOUTHEAST LOWER MICHIGAN

CITY           SKY/WX    TMP DP  RH WIND       PRES   REMARKS
ADRIAN         CLEAR     62  61  96 CALM      30.09S FOG
ALMA           FOG       60  60 100 CALM      30.07S VSB 1/4
ANN ARBOR      FOG       58  58 100 CALM      30.08S VSB 1/4
BAD AXE        FOG       61  61 100 CALM      30.06F VSB 3/4
CARO           FOG       57  57 100 CALM      30.06S VSB 1/4
DETROIT CITY   CLEAR     67  64  90 CALM      30.07S FOG
DETROIT        PTCLDY    68  66  93 CALM      30.08S FOG
FLINT          CLEAR     64  61  90 SW3       30.07S FOG
GROSSE ILE     MOCLDY    70  66  88 CALM      30.06S FOG
HILLSDALE      CLEAR     65  65 100 CALM      30.10R FOG
HOWELL           N/A     65  65  98 CALM      30.08R FOG

CITY           SKY/WX    TMP DP  RH WIND       PRES   REMARKS
JACKSON        CLEAR     63  62  97 CALM      30.08S FOG
LAMBERTVILLE   FOG       65  62  93 CALM      30.08S VSB 1/4
LANSING        CLEAR     63  61  93 CALM      30.08S
LAPEER         CLOUDY    56  56 100 CALM      30.08R FOG
MASON          FOG       64  62  92 CALM      30.08S VSB 1/2
MONROE         FOG       63  62  97 CALM      30.07S VSB 1/2
MT. CLEMENS    CLEAR     62  61  98 CALM      30.06R
PONTIAC        CLEAR     61  60  97 CALM      30.07S FOG
PORT HOPE        N/A     65  64  97 CALM      30.04S
PORT HURON     MOCLDY    57  57 100 CALM      30.07S
TRI CITIES     FOG       64  62  93 SW6       30.07R VSB 1/4
MIDLAND        FOG       60  59  97 CALM      30.05S VSB 1/4
TROY           CLEAR     67  65  94 CALM      30.09S FOG
SAGINAW HB     FOG       59  59 100 CALM      30.06R VSB<1/4
$$
MIZ043>046-050>051-056>058-064>065-071>073-077>080-011100-
SOUTHWEST LOWER MICHIGAN

CITY           SKY/WX    TMP DP  RH WIND       PRES   REMARKS
BATTLE CREEK   CLEAR     65  63  93 CALM      30.08S FOG
BENTON HARBOR  CLEAR     67  66  97 CALM      30.06S FOG
BIG RAPIDS     CLEAR     57  56  97 CALM      30.06S
COLDWATER      CLEAR     64  64 100 CALM      30.09S FOG
FREMONT          N/A     61  61 100 CALM      30.05S FOG
HOLLAND        CLEAR     66  64  93 S3        30.06S FOG
GRAND RAPIDS   PTCLDY    65  63  93 S3        30.07S FOG
IONIA          FOG       62  62 100 SW3       30.06S VSB 1/2
KALAMAZOO      CLEAR     66  64  93 S5        30.08S FOG
LUDINGTON        N/A     62  60  93 CALM      30.04S FOG
MARSHALL       FOG       61  60  97 CALM      30.08S VSB 1/2
MOUNT PLEASANT FOG       60  59  94 CALM      30.05S VSB 1/4
MUSKEGON       CLEAR     64  60  87 E3        30.05S FOG
SOUTH HAVEN    CLEAR     66  65  96 CALM      30.06R FOG
$$
MIZ016>042-011100-
NORTHERN LOWER MICHIGAN

CITY           SKY/WX    TMP DP  RH WIND       PRES   REMARKS
ALPENA         CLEAR     62  60  93 SW5       30.03S FOG
BEAVER ISLAND  CLEAR     66  65  96 SW9       30.01S FOG
BELLAIRE       CLEAR     59  58  97 CALM      30.03S FOG
CADILLAC       FOG       57  56  95 CALM      30.06S VSB 1/4
CHARLEVOIX     CLEAR     66  65  97 S5        30.05S
FRANKFORT      CLEAR     69  66  90 CALM      30.02F
GAYLORD        MOCLDY    62  62 100 SW5       30.05S FOG
GRAYLING       FOG       60  59  99 CALM      30.06S VSB 1
HARBOR SPRINGS CLEAR     66  65  96 SW3       30.02S FOG
HOUGHTON LAKE  CLEAR     64  62  93 W5        30.07R
MANISTEE       CLEAR     59  55  88 E3        30.04S VSB 1
OSCODA         CLOUDY    60  60 100 SW6       30.03R FOG
PELLSTON       CLEAR     66  64  93 SW5       30.02S
ROGERS CITY    CLEAR     64  63  95 SW7       30.02F FOG
TRAVERSE CITY  CLEAR     64  62  93 CALM      30.02S
$$
MIZ007>008-015-011100-
EASTERN UPPER MICHIGAN

CITY           SKY/WX    TMP DP  RH WIND       PRES   REMARKS
KINROSS        CLOUDY    64  64 100 SW5       29.99F VSB 3/4
MACKINAC ISLAN CLOUDY    67  66  96 SW10      30.00F FOG
NEWBERRY       CLOUDY    66  66  99 SW10      29.99S FOG
S. S. MARIE    FOG       64  63  96 S3        29.99S VSB 1/2
$$
MIZ004>006-011>014-085-011100-
CENTRAL UPPER MICHIGAN

CITY           SKY/WX    TMP DP  RH WIND       PRES   REMARKS
MANISTIQUE     PTCLDY    63  62  97 S6        29.98F FOG
ESCANABA       CLOUDY    63  61  94 CALM      29.97S VSB<1/4
MENOMINEE      CLEAR     66  63  88 SW6       29.98S
SAWYER-GWINN   FOG       65  64  96 S5        29.98S VSB 1/4
$$
MIZ001>003-009>011-084-011100-
WESTERN UPPER MICHIGAN

CITY           SKY/WX    TMP DP  RH WIND       PRES   REMARKS
IRON MOUNTAIN  CLEAR     64  63  96 CALM      29.97F FOG
HOUGHTON       CLEAR     69  66  90 SW3       29.91S
IRONWOOD       CLEAR     73  70  88 SW7       29.90S
$$

ABBREVIATIONS USED IN REMARKS
   TC - TEMPERATURE IN CELSIUS
  WCI - WIND CHILL INDEX
   HX - HEAT INDEX
  VSB - VISIBILITY




USA.gov is the U.S. government's official web portal to all federal, state and local government web resources and services.